FW5122 Weather Reports


Display with metric or nautical units.
time (UTC)temp
F
wind
direction
speed
MPH
gust
MPH
rain 1hr
in
rain 24hr
in
rain mn
in
humidity
%
barometer
mb
20260510064431 75 8 0.0 6.0 0.00 0.00 0.00 71 1012.1
20260510063731 76 24 0.0 8.0 0.00 0.00 0.00 71 1012.1
20260510063031 76 10 0.0 8.0 0.00 0.00 0.00 71 1012.1
20260510062331 76 5 0.0 8.0 0.00 0.00 0.00 70 1011.8
20260510061631 76 8 0.0 8.0 0.00 0.00 0.00 70 1011.1
20260510060931 76 7 0.0 8.0 0.00 0.00 0.00 69 1010.4
20260510060232 76 44 2.0 8.0 0.00 0.00 0.00 69 1010.1
20260510055531 76 22 2.0 8.0 0.00 0.00 0.00 69 1010.4
20260510054831 76 4 5.0 8.0 0.00 0.00 0.00 68 1010.4
20260510053431 76 71 2.0 6.0 0.00 0.00 0.00 68 1010.4
20260510052731 76 16 0.0 6.0 0.00 0.00 0.00 67 1010.4
20260510052031 76 20 0.0 6.0 0.00 0.00 0.00 67 1010.1
20260510051331 76 20 2.0 6.0 0.00 0.00 0.00 66 1010.1
20260510050631 76 14 2.0 6.0 0.00 0.00 0.00 66 1009.7
20260510045931 76 62 5.0 6.0 0.00 0.00 0.00 65 1009.7
20260510045232 76 13 2.0 6.0 0.00 0.00 0.00 65 1009.7
20260510044532 76 99 2.0 6.0 0.00 0.00 0.00 65 1009.7
20260510043831 76 12 0.0 6.0 0.00 0.00 0.00 64 1009.7
20260510043131 76 35 2.0 6.0 0.00 0.00 0.00 64 1009.7
20260510042432 77 9 0.0 4.0 0.00 0.00 0.00 64 1009.7
20260510041731 77 14 0.0 4.0 0.00 0.00 0.00 63 1009.7
20260510040332 77 9 0.0 4.0 0.00 0.00 0.00 62 1010.1
20260510035631 78 6 0.0 4.0 0.00 0.00 0.00 62 1010.1
20260510034231 78 11 0.0 4.0 0.00 0.00 0.00 61 1010.1
20260510033531 78 23 2.0 6.0 0.00 0.00 0.00 61 1010.1
20260510032831 79 14 0.0 6.0 0.00 0.00 0.00 61 1010.1
20260510032131 79 13 2.0 6.0 0.00 0.00 0.00 60 1010.4
20260510030734 79 35 2.0 6.0 0.00 0.00 0.00 60 1010.4
20260510030034 79 22 2.0 6.0 0.00 0.00 0.00 60 1010.1
20260510025334 79 22 2.0 6.0 0.00 0.00 0.00 59 1010.1
20260510024634 79 29 2.0 6.0 0.00 0.00 0.00 59 1010.1
20260510023934 79 345 2.0 6.0 0.00 0.00 0.00 60 1009.7
20260510023234 78 10 2.0 4.0 0.00 0.00 0.00 60 1009.7
20260510021134 79 11 0.0 0.0 0.00 0.00 0.00 57 1009.4
20260510020434 79 9 0.0 0.0 0.00 0.00 0.00 57 1009.4
20260510015734 80 13 0.0 0.0 0.00 0.00 0.00 56 1009.4
20260510015034 80 13 0.0 2.0 0.00 0.00 0.00 56 1009.4
20260510014334 80 13 0.0 2.0 0.00 0.00 0.00 55 1009.4
20260510013633 81 13 0.0 4.0 0.00 0.00 0.00 55 1009.1
20260510012934 81 13 0.0 6.0 0.00 0.00 0.00 54 1009.4
20260510011534 82 13 0.0 6.0 0.00 0.00 0.00 53 1009.1
20260510010835 83 13 0.0 6.0 0.00 0.00 0.00 53 1009.1
20260510005434 84 8 0.0 6.0 0.00 0.00 0.00 52 1008.7
20260510004734 84 14 5.0 6.0 0.00 0.00 0.00 52 1008.7
20260510004033 84 42 8.0 6.0 0.00 0.00 0.00 52 1008.7
20260510003334 85 34 8.0 6.0 0.00 0.00 0.00 52 1008.7
20260510002633 85 13 0.0 6.0 0.00 0.00 0.00 51 1008.7
20260510001933 85 57 8.0 6.0 0.00 0.00 0.00 51 1009.1
20260510000534 86 7 0.0 6.0 0.00 0.00 0.00 51 1008.7
20260509235834 86 8 2.0 6.0 0.00 0.00 0.00 51 1008.7
20260509235133 86 4 5.0 6.0 0.00 0.00 0.00 51 1008.4
20260509234434 86 16 2.0 6.0 0.00 0.00 0.00 51 1008.7
20260509233733 86 46 8.0 6.0 0.00 0.00 0.00 51 1008.7
20260509233034 86 10 0.0 6.0 0.00 0.00 0.00 51 1008.7
20260509232334 86 47 5.0 6.0 0.00 0.00 0.00 51 1008.4
20260509230934 87 21 5.0 10.0 0.00 0.00 0.00 52 1008.7
20260509230234 87 10 5.0 10.0 0.00 0.00 0.00 52 1008.7
20260509225534 86 11 5.0 10.0 0.00 0.00 0.00 52 1008.4
20260509224834 87 325 5.0 10.0 0.00 0.00 0.00 52 1008.7
20260509224133 87 37 5.0 10.0 0.00 0.00 0.00 53 1008.7
20260509223433 87 7 5.0 10.0 0.00 0.00 0.00 53 1008.7
20260509222733 87 10 5.0 10.0 0.00 0.00 0.00 53 1008.4
20260509222036 87 0 5.0 10.0 0.00 0.00 0.00 53 1008.4
20260509221333 88 262 5.0 10.0 0.00 0.00 0.00 53 1008.4
20260509220633 88 122 8.0 8.0 0.00 0.00 0.00 52 1008.7
20260509215934 89 83 5.0 8.0 0.00 0.00 0.00 52 1008.7
20260509215233 89 9 5.0 8.0 0.00 0.00 0.00 52 1008.7
20260509214533 90 8 2.0 8.0 0.00 0.00 0.00 52 1008.7
20260509213133 90 6 2.0 8.0 0.00 0.00 0.00 52 1008.7
20260509212433 90 74 11.0 8.0 0.00 0.00 0.00 53 1008.7
20260509211733 90 41 5.0 10.0 0.00 0.00 0.00 53 1009.1
20260509211033 90 99 8.0 10.0 0.00 0.00 0.00 54 1009.1
20260509205633 91 37 5.0 10.0 0.00 0.00 0.00 51 1009.1
20260509204933 90 345 2.0 10.0 0.00 0.00 0.00 50 1009.1
20260509204233 90 11 8.0 10.0 0.00 0.00 0.00 50 1009.4
20260509203533 90 4 5.0 10.0 0.00 0.00 0.00 50 1009.4
20260509202834 90 85 11.0 10.0 0.00 0.00 0.00 51 1009.7
20260509202133 90 2 5.0 10.0 0.00 0.00 0.00 51 1009.7
20260509201433 90 23 5.0 10.0 0.00 0.00 0.00 52 1009.7
20260509200733 89 2 5.0 10.0 0.00 0.00 0.00 51 1010.1
20260509200033 90 8 2.0 10.0 0.00 0.00 0.00 50 1010.1
20260509195333 91 28 8.0 10.0 0.00 0.00 0.00 51 1009.7
20260509194633 90 8 11.0 10.0 0.00 0.00 0.00 53 1010.1
20260509193233 90 5 2.0 10.0 0.00 0.00 0.00 53 1010.1
20260509192533 90 358 5.0 10.0 0.00 0.00 0.00 54 1010.1
20260509191833 90 10 2.0 10.0 0.00 0.00 0.00 54 1010.4
20260509191133 89 20 8.0 8.0 0.00 0.00 0.00 55 1010.1
20260509190433 89 358 2.0 8.0 0.00 0.00 0.00 56 1010.1
20260509185733 89 9 5.0 8.0 0.00 0.00 0.00 57 1010.4
20260509185033 88 1 5.0 8.0 0.00 0.00 0.00 57 1010.4
20260509184333 87 8 5.0 8.0 0.00 0.00 0.00 58 1010.4
20260509183633 87 359 8.0 8.0 0.00 0.00 0.00 59 1010.4
20260509182933 87 347 5.0 8.0 0.00 0.00 0.00 61 1010.4
20260509182233 87 31 5.0 8.0 0.00 0.00 0.00 61 1010.4
20260509181533 87 298 8.0 8.0 0.00 0.00 0.00 61 1010.7
20260509180833 87 9 5.0 6.0 0.00 0.00 0.00 61 1010.4
20260509174733 87 8 2.0 8.0 0.00 0.00 0.00 61 1010.7
20260509174033 86 16 5.0 8.0 0.00 0.00 0.00 61 1011.1
20260509173333 86 7 2.0 8.0 0.00 0.00 0.00 62 1011.1
20260509172635 87 9 2.0 8.0 0.00 0.00 0.00 61 1011.1
20260509171932 86 5 5.0 8.0 0.00 0.00 0.00 62 1011.1
20260509171233 85 10 2.0 8.0 0.00 0.00 0.00 63 1011.1
20260509170532 85 20 5.0 8.0 0.00 0.00 0.00 62 1011.4
20260509165833 86 354 8.0 8.0 0.00 0.00 0.00 63 1011.1
20260509165133 86 353 0.0 8.0 0.00 0.00 0.00 63 1011.1
20260509163733 85 2 8.0 10.0 0.00 0.00 0.00 65 1011.4
20260509163033 84 2 5.0 10.0 0.00 0.00 0.00 64 1011.1
20260509162333 84 12 2.0 10.0 0.00 0.00 0.00 66 1011.4
20260509161633 84 6 2.0 10.0 0.00 0.00 0.00 65 1011.1
20260509160932 83 1 2.0 10.0 0.00 0.00 0.00 66 1011.1
20260509160233 82 1 2.0 10.0 0.00 0.00 0.00 67 1011.1
20260509155532 82 35 5.0 10.0 0.00 0.00 0.00 67 1011.4
20260509154833 81 352 5.0 10.0 0.00 0.00 0.00 69 1011.1
20260509154132 80 4 14.0 10.0 0.00 0.00 0.00 70 1011.1
20260509152732 79 4 5.0 6.0 0.00 0.00 0.00 73 1011.4
20260509152033 78 7 0.0 6.0 0.00 0.00 0.00 74 1011.1
20260509150632 77 339 8.0 6.0 0.00 0.00 0.00 75 1011.1
20260509145932 77 2 5.0 8.0 0.00 0.00 0.00 76 1011.1
20260509143832 76 8 5.0 8.0 0.00 0.00 0.00 79 1011.4
20260509143132 75 358 0.0 8.0 0.00 0.00 0.00 79 1011.1
20260509142432 75 355 5.0 8.0 0.00 0.00 0.00 81 1011.4
20260509141032 74 8 2.0 8.0 0.00 0.00 0.00 81 1011.1
20260509140333 73 17 5.0 6.0 0.00 0.00 0.00 82 1011.4
20260509135632 73 2 0.0 6.0 0.00 0.00 0.00 82 1011.1
20260509134933 73 352 5.0 6.0 0.00 0.00 0.00 82 1011.4
20260509134232 73 348 5.0 6.0 0.00 0.00 0.00 83 1011.1
20260509133532 73 1 2.0 6.0 0.00 0.00 0.00 83 1010.7
20260509132132 72 7 5.0 6.0 0.00 0.00 0.00 83 1011.1
20260509131432 72 319 5.0 6.0 0.00 0.00 0.00 83 1010.7
20260509130732 71 354 2.0 6.0 0.00 0.00 0.00 83 1011.1
20260509130031 72 1 0.0 6.0 0.00 0.00 0.00 83 1010.7
20260509125531 72 4 2.0 6.0 0.00 0.00 0.00 83 1010.7
20260509124831 71 5 0.0 6.0 0.00 0.00 0.00 84 1010.7
20260509124132 71 358 2.0 6.0 0.00 0.00 0.00 84 1010.7
20260509122732 71 0 0.0 6.0 0.00 0.00 0.00 86 1010.7
20260509122031 70 9 2.0 6.0 0.00 0.00 0.00 87 1010.4
20260509120632 70 6 0.0 4.0 0.00 0.00 0.00 88 1010.7
20260509115931 69 6 2.0 4.0 0.00 0.00 0.00 88 1010.4
20260509113831 70 10 2.0 4.0 0.00 0.00 0.00 88 1010.1
20260509113131 70 11 0.0 4.0 0.00 0.00 0.00 88 1010.1
20260509111731 70 14 2.0 4.0 0.00 0.00 0.00 88 1009.7
20260509111031 70 14 0.0 4.0 0.00 0.00 0.00 88 1009.7
20260509110331 70 15 5.0 4.0 0.00 0.00 0.00 88 1009.4
20260509105631 70 30 2.0 4.0 0.00 0.00 0.00 88 1009.7
20260509104932 70 11 0.0 4.0 0.00 0.00 0.00 87 1009.7
20260509103531 70 12 0.0 4.0 0.00 0.00 0.00 88 1009.7
20260509102131 70 11 0.0 4.0 0.00 0.00 0.00 88 1009.7
20260509101431 70 11 0.0 4.0 0.00 0.00 0.00 88 1009.4
20260509095331 70 356 5.0 8.0 0.00 0.00 0.00 88 1009.4
20260509094631 70 346 5.0 10.0 0.00 0.00 0.00 88 1009.1
20260509093231 69 357 2.0 10.0 0.00 0.00 0.00 87 1008.7
20260509092531 69 13 0.0 10.0 0.00 0.00 0.00 87 1007.7
20260509091831 69 39 5.0 10.0 0.00 0.00 0.00 87 1007.7
20260509090431 69 10 2.0 10.0 0.00 0.00 0.00 86 1007.4
20260509085731 69 6 0.0 10.0 0.00 0.00 0.00 86 1007.7
20260509085031 70 127 8.0 10.0 0.00 0.00 0.00 85 1007.4
20260509083632 70 20 8.0 10.0 0.00 0.00 0.00 85 1008.4
20260509082931 70 23 8.0 8.0 0.00 0.00 0.00 85 1008.7
20260509082231 70 23 2.0 4.0 0.00 0.00 0.00 85 1009.4
20260509080831 71 11 0.0 4.0 0.00 0.00 0.00 85 1009.7
20260509080131 71 22 2.0 4.0 0.00 0.00 0.00 84 1010.4
20260509075431 71 13 0.0 4.0 0.00 0.00 0.00 84 1010.4
20260509074731 71 20 0.0 4.0 0.00 0.00 0.00 84 1010.4
20260509074031 71 8 2.0 4.0 0.00 0.00 0.00 85 1010.7
20260509073331 71 14 0.0 4.0 0.00 0.00 0.00 85 1010.7
20260509072631 71 7 0.0 4.0 0.00 0.00 0.00 86 1011.1
20260509071931 70 3 2.0 4.0 0.00 0.00 0.00 86 1011.4
20260509071231 70 9 2.0 2.0 0.00 0.00 0.00 85 1011.4
20260509065831 69 12 0.0 2.0 0.00 0.00 0.00 84 1011.1